Weather History for Big Bear City, CA

Change the Weather History Date:

Tuesday, April 9, 2013

  Actual Average (KBUO) Record (KBUO)
Temperature  
Mean Temperature 36 °F -  
Max Temperature 44 °F 59 °F 69 °F (1998)
Min Temperature 28 °F 39 °F 33 °F (2001)
Degree Days  
Heating Degree Days 29    
Moisture  
Dew Point 6 °F    
Average Humidity 31    
Maximum Humidity 64    
Minimum Humidity 11    
Precipitation  
Precipitation 0.00 in - - ()
Sea Level Pressure  
Sea Level Pressure 29.93 in    
Wind  
Wind Speed 9 mph (NNW)    
Max Wind Speed 17 mph    
Max Gust Speed 28 mph    
Visibility 10 miles    
Events      
Averages and records for this station are not official NWS values.
T = Trace of Precipitation, MM = Missing Value Source: NWS Daily Summary

Daily Weather History Graph

Daily Weather History Graph

Search for Another Location

Airport:

Trip Planner

Search our weather history database for the weather conditions in past years. The results will help you decide how hot, cold, wet, or windy it might be!

Date:

Astronomy

Apr. 09, 2013 Rise Set
Actual Time 6:23 AM PDT 7:14 PM PDT
Civil Twilight 5:57 AM PDT 7:40 PM PDT
Nautical Twilight 5:27 AM PDT 8:10 PM PDT
Astronomical Twilight 4:56 AM PDT 8:41 PM PDT
Moon 5:47 AM PDT (4/9) 6:54 PM PDT (4/9)
Length of Visible Light 13h 42m
Length of Day
12h 51m
Waning Crescent, 0% of the Moon is Illuminated
Apr 9
Waning Crescent
Apr 10
New
Apr 18
First Quarter
Apr 25
Full
May 2
Last Quarter

Hourly Weather History & Observations

Time (PDT) Temp. Windchill Dew Point Humidity Pressure Visibility Wind Dir Wind Speed Gust Speed Precip Events Conditions
12:15 AM 32.0 °F 23.6 °F 21.2 °F 64% 29.81 in 10.0 mi WSW 10.4 mph 18.4 mph N/A   Overcast
12:35 AM 32.0 °F 22.5 °F 21.2 °F 64% 29.81 in 10.0 mi West 12.7 mph 17.3 mph N/A   Overcast
12:55 AM 32.0 °F 23.0 °F 17.6 °F 55% 29.81 in 10.0 mi WSW 11.5 mph 19.6 mph N/A   Overcast
1:15 AM 32.0 °F 23.6 °F 15.8 °F 51% 29.81 in 10.0 mi West 10.4 mph 27.6 mph N/A   Overcast
1:35 AM 32.0 °F 24.2 °F 15.8 °F 51% 29.81 in 10.0 mi West 9.2 mph 20.7 mph N/A   Overcast
1:55 AM 30.2 °F 21.9 °F 14.0 °F 51% 29.81 in 10.0 mi West 9.2 mph 17.3 mph N/A   Overcast
2:15 AM 32.0 °F 24.2 °F 15.8 °F 51% 29.81 in 10.0 mi West 9.2 mph 18.4 mph N/A   Overcast
2:35 AM 32.0 °F 23.0 °F 12.2 °F 44% 29.80 in 10.0 mi West 11.5 mph 20.7 mph N/A   Overcast
2:55 AM 30.2 °F 23.4 °F 12.2 °F 47% 29.80 in 10.0 mi WNW 6.9 mph 16.1 mph N/A   Scattered Clouds
3:15 AM 30.2 °F 20.8 °F 10.4 °F 44% 29.80 in 10.0 mi West 11.5 mph 17.3 mph N/A   Scattered Clouds
3:35 AM 30.2 °F 21.3 °F 10.4 °F 44% 29.79 in 10.0 mi West 10.4 mph 18.4 mph N/A   Scattered Clouds
3:55 AM 30.2 °F 24.3 °F 10.4 °F 44% 29.80 in 10.0 mi WNW 5.8 mph - N/A   Scattered Clouds
4:15 AM 30.2 °F 22.6 °F 10.4 °F 44% 29.80 in 10.0 mi NW 8.1 mph 19.6 mph N/A   Clear
4:35 AM 30.2 °F 23.4 °F 10.4 °F 44% 29.81 in 10.0 mi North 6.9 mph - N/A   Clear
4:55 AM 30.2 °F 21.9 °F 10.4 °F 44% 29.81 in 10.0 mi NW 9.2 mph 16.1 mph N/A   Clear
5:15 AM 30.2 °F 21.9 °F 8.6 °F 40% 29.82 in 10.0 mi NNW 9.2 mph 21.9 mph N/A   Clear
5:35 AM 30.2 °F 21.3 °F 8.6 °F 40% 29.83 in 10.0 mi NW 10.4 mph 19.6 mph N/A   Clear
5:55 AM 30.2 °F 23.4 °F 8.6 °F 40% 29.85 in 10.0 mi North 6.9 mph - N/A   Clear
6:15 AM 28.4 °F 22.2 °F 10.4 °F 47% 29.85 in 10.0 mi NW 5.8 mph - N/A   Clear
6:35 AM 30.2 °F 23.4 °F 10.4 °F 44% 29.86 in 10.0 mi NNW 6.9 mph 16.1 mph N/A   Clear
6:55 AM 30.2 °F 24.3 °F 8.6 °F 40% 29.87 in 10.0 mi NW 5.8 mph - N/A   Clear
7:15 AM 30.2 °F 24.3 °F 10.4 °F 44% 29.88 in 10.0 mi NW 5.8 mph - N/A   Clear
7:35 AM 30.2 °F 25.4 °F 10.4 °F 44% 29.89 in 10.0 mi NNW 4.6 mph 16.1 mph N/A   Clear
7:55 AM 32.0 °F 25.6 °F 10.4 °F 41% 29.90 in 10.0 mi North 6.9 mph 16.1 mph N/A   Clear
8:15 AM 32.0 °F 23.6 °F 10.4 °F 41% 29.90 in 10.0 mi WNW 10.4 mph - N/A   Clear
8:35 AM 32.0 °F 24.2 °F 8.6 °F 38% 29.91 in 10.0 mi NNW 9.2 mph - N/A   Clear
8:55 AM 32.0 °F 22.5 °F 8.6 °F 38% 29.91 in 10.0 mi North 12.7 mph 19.6 mph N/A   Clear
9:15 AM 33.8 °F 25.8 °F 8.6 °F 35% 29.92 in 10.0 mi NNE 10.4 mph 23.0 mph N/A   Clear
9:35 AM 33.8 °F 25.8 °F 8.6 °F 35% 29.92 in 10.0 mi North 10.4 mph 17.3 mph N/A   Clear
9:55 AM 33.8 °F 24.8 °F 8.6 °F 35% 29.93 in 10.0 mi North 12.7 mph 20.7 mph N/A   Clear
10:15 AM 33.8 °F 24.8 °F 8.6 °F 35% 29.92 in 10.0 mi North 12.7 mph 20.7 mph N/A   Clear
10:35 AM 35.6 °F 26.2 °F 8.6 °F 33% 29.92 in 10.0 mi NW 15.0 mph 21.9 mph N/A   Clear
10:55 AM 35.6 °F 30.7 °F 8.6 °F 33% 29.93 in 10.0 mi NNE 5.8 mph - N/A   Clear
11:15 AM 37.4 °F 30.8 °F 8.6 °F 30% 29.93 in 10.0 mi NW 9.2 mph 19.6 mph N/A   Clear
11:35 AM 39.2 °F 32.5 °F 8.6 °F 28% 29.93 in 10.0 mi West 10.4 mph - N/A   Clear
11:55 AM 39.2 °F 35.0 °F 8.6 °F 28% 29.94 in 10.0 mi WNW 5.8 mph - N/A   Clear
12:15 PM 41.0 °F 39.0 °F 6.8 °F 24% 29.94 in 10.0 mi NW 3.5 mph 20.7 mph N/A   Clear
12:35 PM 41.0 °F 34.7 °F 8.6 °F 26% 29.95 in 10.0 mi North 10.4 mph 19.6 mph N/A   Clear
12:55 PM 39.2 °F 34.2 °F 6.8 °F 26% 29.95 in 10.0 mi North 6.9 mph 19.6 mph N/A   Clear
1:15 PM 41.0 °F 37.1 °F 5.0 °F 23% 29.95 in 10.0 mi North 5.8 mph 18.4 mph N/A   Clear
1:35 PM 41.0 °F 39.0 °F 5.0 °F 23% 29.95 in 10.0 mi WNW 3.5 mph - N/A   Clear
1:55 PM 42.8 °F 37.5 °F 5.0 °F 21% 29.96 in 10.0 mi North 9.2 mph 17.3 mph N/A   Clear
2:15 PM 42.8 °F 40.1 °F 3.2 °F 19% 29.95 in 10.0 mi East 4.6 mph 19.6 mph N/A   Clear
2:35 PM 42.8 °F 38.0 °F 5.0 °F 21% 29.95 in 10.0 mi NW 8.1 mph - N/A   Clear
2:55 PM 44.6 °F 37.8 °F 3.2 °F 18% 29.95 in 10.0 mi NW 15.0 mph 23.0 mph N/A   Clear
3:15 PM 42.8 °F 36.6 °F 1.4 °F 18% 29.95 in 10.0 mi NE 11.5 mph 21.9 mph N/A   Clear
3:35 PM 42.8 °F 37.0 °F 1.4 °F 18% 29.96 in 10.0 mi West 10.4 mph 20.7 mph N/A   Clear
3:55 PM 44.6 °F 40.7 °F 1.4 °F 17% 29.96 in 10.0 mi West 6.9 mph - N/A   Clear
4:15 PM 44.6 °F 42.2 °F 3.2 °F 18% 29.97 in 10.0 mi SW 4.6 mph 9.2 mph N/A   Clear
4:35 PM 44.6 °F - -0.4 °F 15% 29.96 in 10.0 mi Calm Calm - N/A   Clear
4:55 PM 44.6 °F 38.8 °F -0.4 °F 15% 29.97 in 10.0 mi West 11.5 mph 20.7 mph N/A   Clear
5:15 PM 44.6 °F 42.2 °F -2.2 °F 14% 29.97 in 10.0 mi West 4.6 mph 23.0 mph N/A   Clear
5:35 PM 44.6 °F 39.7 °F -4.0 °F 13% 29.98 in 10.0 mi WNW 9.2 mph 20.7 mph N/A   Clear
5:55 PM 44.6 °F 39.7 °F -5.8 °F 12% 29.97 in 10.0 mi North 9.2 mph 17.3 mph N/A   Clear
6:15 PM 44.6 °F 40.7 °F -5.8 °F 12% 29.98 in 10.0 mi NNW 6.9 mph 17.3 mph N/A   Clear
6:35 PM 44.6 °F 40.7 °F -7.6 °F 11% 29.98 in 10.0 mi WNW 6.9 mph 19.6 mph N/A   Clear
6:55 PM 42.8 °F 38.6 °F -7.6 °F 12% 29.99 in 10.0 mi North 6.9 mph 16.1 mph N/A   Clear
7:15 PM 42.8 °F 40.1 °F -9.4 °F 11% 29.99 in 10.0 mi NNW 4.6 mph - N/A   Clear
7:55 PM 42.8 °F 38.6 °F -7.6 °F 12% 30.01 in 10.0 mi NNW 6.9 mph - N/A   Clear
8:15 PM 41.0 °F 37.1 °F -7.6 °F 13% 30.02 in 10.0 mi NNW 5.8 mph - N/A   Clear
8:35 PM 41.0 °F 37.1 °F -5.8 °F 14% 30.03 in 10.0 mi ENE 5.8 mph - N/A   Clear
8:55 PM 41.0 °F 35.8 °F -4.0 °F 15% 30.04 in 10.0 mi NE 8.1 mph - N/A   Clear
9:15 PM 41.0 °F 38.0 °F -2.2 °F 16% 30.06 in 10.0 mi NE 4.6 mph - N/A   Clear
9:35 PM 35.6 °F - -0.4 °F 22% 30.06 in 10.0 mi Calm Calm - N/A   Clear
9:55 PM 33.8 °F - 1.4 °F 25% 30.08 in 10.0 mi Calm Calm - N/A   Clear
10:15 PM 35.6 °F 32.8 °F 3.2 °F 26% 30.08 in 10.0 mi North 3.5 mph - N/A   Clear
10:35 PM 33.8 °F - 3.2 °F 28% 30.09 in 10.0 mi Calm Calm - N/A   Clear
10:55 PM 35.6 °F 29.2 °F 5.0 °F 28% 30.10 in 10.0 mi NE 8.1 mph - N/A   Clear
11:15 PM 39.2 °F 33.0 °F 5.0 °F 24% 30.10 in 10.0 mi NE 9.2 mph 21.9 mph N/A   Clear
11:35 PM 39.2 °F 30.2 °F 6.8 °F 26% 30.11 in 10.0 mi NE 17.3 mph 21.9 mph N/A   Clear
11:55 PM 39.2 °F 35.9 °F 8.6 °F 28% 30.12 in 10.0 mi NNE 4.6 mph 16.1 mph N/A   Clear